Tracking 19800 objects as of 24-Jul-2019
HD Live streaming from Space Station
objects crossing your sky now

LEMUR 2 FURIAUS

Track LEMUR 2 FURIAUS now!
10-day predictions
LEMUR 2 FURIAUS is classified as:


NORAD ID: 42840
Int'l Code: 2017-042R
Perigee: 591.0 km
Apogee: 607.4 km
Inclination: 97.6 °
Period: 96.5 minutes
Semi major axis: 6970 km
RCS: Unknown
Launch date: July 14, 2017
Source: United States (US)
Launch site: TYURATAM MISSILE AND SPACE COMPLEX (TTMTR)
aabbcc
Your satellite tracking list
Your tracking list is empty




NASA's NSSDC Master Catalog

Two Line Element Set (TLE):
1 42840U 17042R   19204.74049843 -.00000013  00000-0  39958-5 0  9991
2 42840  97.5625  97.0890 0011785 304.1606  55.8495 14.91895334110217
Source of the keplerian elements: AFSPC